Theta_e
274 273 273 273 273 274 273 273 272 272 272 272 272 272 272 273 274 273 273 273 273 273 273 273 273 273 273 273 273 273 272 272 273 273 273 274 274 274 274 275 277 279
273 274 275 274 273 273 273 272 272 272 272 272 272 272 272 273 273 273 273 273 273 273 273 273 272 272 272 272 272 271 271 271 271 273 272 272 272 273 273 274 276 277
272 272 272 272 271 271 272 272 272 272 272 272 272 272 272 273 273 273 273 273 272 272 272 272 272 272 272 272 272 271 271 271 270 271 272 271 272 272 273 274 276 277
272 272 272 271 271 271 271 271 271 271 271 271 271 272 272 273 273 272 272 273 272 271 272 272 271 272 271 271 271 271 271 271 271 271 271 271 272 272 272 274 275 278
271 271 271 271 271 271 271 270 270 270 271 271 271 272 272 272 271 271 271 271 271 271 271 271 271 271 271 271 271 270 270 270 271 271 270 270 271 272 272 273 274 276
271 271 271 271 271 270 270 270 270 270 270 270 271 271 271 271 271 271 271 270 271 271 271 271 271 271 271 270 270 270 270 270 270 270 270 270 271 272 274 275 276 277
270 270 270 270 270 270 269 269 270 271 270 271 271 270 271 270 270 270 270 271 270 270 270 270 270 270 270 270 270 269 270 270 270 270 270 270 271 271 273 274 275 277
269 269 269 269 269 269 269 269 269 270 270 270 270 270 270 270 270 270 270 270 269 269 269 269 270 270 270 270 269 269 269 270 270 270 270 270 270 269 270 271 272 273
269 268 269 268 268 268 269 269 269 269 270 269 269 269 270 270 269 269 269 269 268 268 269 268 269 269 269 269 269 269 269 269 270 270 270 270 269 270 270 271 272 273
268 268 268 268 268 268 268 268 269 269 269 269 269 269 268 268 268 268 268 268 267 267 267 268 268 268 268 268 269 269 269 269 269 270 270 271 271 270 270 271 272 273
267 267 267 267 267 268 268 268 268 268 268 268 267 267 267 267 267 267 267 267 266 266 266 267 267 267 267 267 268 269 269 269 269 269 269 270 271 272 273 273 274 275
266 266 267 267 267 267 267 267 268 267 267 267 266 266 266 266 266 266 266 266 266 266 266 266 266 267 267 267 267 268 269 269 269 269 269 270 270 270 270 271 271 271
266 266 266 266 266 267 267 267 266 266 265 265 265 265 265 264 265 265 265 266 265 266 266 266 266 266 266 267 267 268 268 268 269 269 269 270 270 271 271 271 271 272
266 266 266 266 266 266 266 265 265 265 265 264 264 264 264 264 264 264 265 265 265 265 266 266 266 266 266 267 267 268 268 268 269 269 269 269 270 270 270 271 272 272
266 266 266 266 266 265 264 264 264 264 264 263 263 263 264 264 264 264 264 265 265 265 266 266 266 266 267 267 267 268 268 268 269 269 269 269 270 270 270 271 272 273
265 265 265 264 264 263 263 263 263 262 262 262 262 263 263 264 264 264 265 265 265 265 266 266 266 267 269 272 274 271 270 270 270 270 270 270 270 270 271 271 272 273
264 264 263 262 262 262 261 261 261 261 261 261 262 262 263 263 264 264 265 266 265 265 265 266 267 267 272 274 275 276 274 272 272 272 272 272 272 272 272 273 273 274
262 262 261 261 261 260 260 260 260 260 260 261 261 262 263 264 264 265 265 265 265 265 265 266 267 271 274 275 276 277 277 274 273 273 273 273 273 272 272 273 273 274
261 260 259 259 259 259 259 259 259 260 260 261 261 263 264 264 264 264 264 264 264 264 264 265 266 271 273 275 276 277 277 277 274 274 274 274 274 273 273 273 273 273
260 258 258 258 259 259 259 259 259 259 260 262 263 263 263 263 263 263 263 263 264 264 264 264 265 269 273 275 276 277 278 278 275 275 275 274 274 274 274 273 273 273
258 258 257 258 258 258 258 258 259 260 261 262 262 263 262 262 262 262 262 262 263 263 263 264 265 271 274 275 276 277 278 278 275 276 276 275 275 274 274 274 274 274
257 257 257 257 257 257 257 258 259 260 260 262 262 262 262 262 262 262 261 261 262 263 263 264 265 272 273 275 276 277 279 276 276 276 275 275 275 275 275 275 275 274
257 256 256 256 257 257 257 258 259 259 260 261 261 261 261 261 260 261 261 262 262 263 263 264 265 269 273 275 276 277 277 275 276 275 275 274 274 275 275 275 275 275
256 256 255 256 256 256 257 258 259 260 260 261 260 260 260 260 260 261 261 262 262 263 264 264 266 269 274 275 276 277 277 274 274 275 274 274 274 274 274 274 275 277
256 255 255 255 255 256 257 257 258 259 259 260 260 260 260 260 261 261 261 262 263 264 268 267 266 268 273 274 276 277 275 274 274 274 274 274 274 273 274 274 274 276
255 254 255 255 255 256 257 258 259 259 259 259 259 259 259 260 261 261 262 263 264 265 265 266 266 267 270 275 276 276 277 274 274 274 273 274 274 273 273 274 274 274
Wind_Speed
5 4 5 5 6 6 8 9 9 9 9 8 9 10 11 10 12 10 13 11 11 12 11 11 11 12 12 12 13 12 12 13 13 10 12 13 14 15 16 17 18 15
5 4 5 5 6 6 7 7 10 9 11 10 8 11 12 11 12 10 12 10 11 11 11 12 12 12 11 12 10 11 12 10 15 10 12 16 14 15 17 20 16 17
5 5 5 6 8 9 9 8 8 9 9 10 10 10 10 11 11 12 10 13 12 14 12 12 12 12 12 12 10 12 12 14 15 13 14 16 13 14 16 14 12 19
4 5 6 7 8 9 9 9 9 9 9 10 10 9 10 10 11 13 13 12 12 12 12 13 12 12 11 11 13 12 13 14 12 12 13 14 14 13 18 13 16 13
6 6 6 7 7 8 9 9 11 11 12 11 10 10 11 12 11 13 12 14 13 12 13 12 11 13 11 12 11 12 13 12 13 12 13 15 12 15 13 15 17 16
5 6 6 7 7 8 9 10 11 11 12 12 12 9 11 12 12 12 14 13 12 12 13 13 13 11 11 12 11 12 14 14 13 15 18 17 14 12 14 13 13 16
6 6 7 7 8 8 10 10 10 11 11 11 10 12 10 12 12 13 14 13 14 16 14 13 16 15 11 15 14 14 13 14 15 16 17 17 16 16 14 11 14 14
6 6 7 7 8 9 10 10 10 10 11 11 12 11 10 12 14 14 12 14 17 16 18 16 14 20 17 14 17 16 17 14 15 17 18 16 13 18 15 15 17 16
6 7 7 8 9 9 10 11 10 11 10 11 11 11 11 11 14 14 16 15 18 17 18 18 17 17 17 16 18 18 18 17 16 17 18 19 18 15 14 16 17 16
7 7 8 8 9 8 10 10 10 10 9 11 11 11 13 13 13 14 16 17 16 20 16 19 18 18 18 17 18 19 18 19 18 18 18 18 19 18 15 15 17 17
8 8 9 9 9 9 11 12 11 11 11 12 13 13 13 13 14 14 14 16 15 18 19 19 19 18 19 19 18 18 18 18 18 18 17 18 18 16 15 14 15 16
8 8 8 9 10 10 10 10 10 11 11 11 10 14 14 14 15 14 14 17 18 18 19 21 19 19 19 20 19 19 18 18 18 18 18 18 17 18 17 16 17 19
8 8 9 9 9 9 9 10 11 11 11 12 12 13 14 15 15 16 15 18 19 19 20 19 20 19 19 19 19 19 19 19 18 18 18 17 17 17 17 17 17 17
8 8 9 9 9 10 10 10 10 11 11 12 12 14 15 16 16 16 20 18 19 19 19 18 19 19 19 18 18 18 18 18 18 18 18 17 17 17 18 18 17 17
8 8 8 9 10 10 10 11 11 12 12 12 13 13 13 14 17 20 18 20 21 18 19 19 17 17 16 15 16 17 17 17 18 18 18 17 17 18 17 17 17 17
8 8 8 9 10 10 11 11 12 12 12 13 13 12 13 14 14 14 19 19 18 19 18 16 16 13 18 29 26 19 19 16 16 16 16 16 16 16 16 16 18 17
7 7 8 9 9 10 10 11 12 12 12 13 14 14 14 14 15 18 16 16 19 18 19 17 17 16 27 28 30 32 23 20 19 17 18 18 15 17 16 16 15 16
6 8 8 8 9 9 10 11 11 12 12 13 14 15 14 13 14 15 16 17 16 17 18 17 17 24 30 31 32 32 28 21 18 17 15 15 16 15 16 16 16 14
6 7 7 8 8 10 10 11 12 12 13 14 15 14 13 15 16 16 16 16 16 18 18 18 18 26 31 33 32 32 32 26 18 15 18 15 17 15 15 15 15 14
6 6 7 8 8 10 10 11 12 13 12 13 14 14 14 15 15 17 16 16 17 18 18 19 20 25 32 32 32 32 31 27 17 19 18 17 17 15 15 15 17 15
5 6 7 9 9 10 11 11 12 13 14 12 11 13 15 14 15 16 16 16 16 16 16 19 18 30 32 34 33 32 30 28 17 16 15 14 13 14 16 14 17 16
5 6 7 9 10 11 11 12 12 12 14 13 12 12 12 12 13 13 15 16 16 16 16 18 18 32 33 32 32 30 31 18 15 16 15 12 12 13 15 13 14 16
5 6 8 9 10 11 12 12 13 14 12 11 13 12 12 13 13 13 13 15 17 16 17 17 18 25 32 33 32 31 24 14 13 11 10 12 14 13 13 15 15 16
6 6 8 9 9 11 12 12 12 11 11 10 12 13 14 13 13 14 13 13 15 17 15 17 18 25 33 32 30 29 25 17 14 12 10 12 13 12 11 12 15 24
5 6 7 8 9 10 11 13 12 12 11 10 10 11 13 12 12 13 14 13 13 16 24 24 19 24 30 27 28 29 24 16 13 12 8 10 12 12 12 12 13 17
4 5 7 8 10 11 11 10 10 11 11 12 11 10 12 12 12 12 15 15 15 15 17 17 17 16 18 28 29 30 30 19 13 13 12 12 12 10 8 10 11 14
Wind_Direction
270 275 277 283 282 282 288 294 295 295 294 296 293 296 295 294 297 291 288 284 278 277 278 275 273 273 273 272 269 270 270 270 269 263 265 265 264 269 273 273 272 267
277 278 286 288 286 283 282 285 292 296 295 292 288 291 293 294 292 292 289 286 283 275 276 276 276 271 270 270 268 268 271 266 269 262 263 260 258 261 262 264 264 265
287 293 291 290 290 292 292 291 290 292 291 290 289 287 289 292 292 291 286 288 290 289 284 280 275 274 269 267 267 269 270 272 268 267 262 262 260 261 263 265 262 260
290 290 293 290 289 292 297 298 295 292 290 292 290 290 289 290 292 293 293 292 288 286 285 281 276 274 269 269 271 270 271 268 265 266 264 263 262 262 264 262 260 256
299 299 291 289 293 296 299 298 297 296 295 290 289 289 291 293 293 293 292 293 291 287 286 284 279 276 273 275 270 271 272 270 266 262 259 261 255 256 255 253 251 252
288 286 290 294 300 303 300 297 294 295 294 293 290 289 288 291 291 291 292 294 293 290 291 290 288 286 283 277 272 266 273 271 266 264 266 266 265 258 263 259 260 259
293 299 301 303 300 297 297 295 295 292 291 290 292 289 294 292 292 293 296 293 296 297 294 294 295 291 289 288 281 277 273 273 274 270 266 266 264 263 261 266 268 263
300 304 303 302 300 300 297 296 293 293 293 293 291 291 292 292 296 298 297 299 298 297 295 291 287 291 289 286 283 282 280 279 278 277 274 270 263 264 262 259 260 266
308 307 305 301 300 299 298 298 296 294 292 292 293 296 296 297 299 300 299 300 296 293 294 291 289 288 287 287 283 281 279 279 279 278 277 274 267 261 259 263 260 253
309 303 301 301 301 302 298 296 294 290 293 295 299 302 302 300 297 298 301 298 296 293 291 290 290 290 286 284 282 279 278 278 279 278 277 276 271 266 260 260 260 260
300 302 298 296 293 290 288 291 294 300 300 300 301 302 304 306 302 302 295 293 291 293 292 292 289 287 287 285 282 280 276 276 277 277 274 274 277 277 275 272 268 262
289 289 295 295 295 294 290 289 293 300 304 304 305 304 307 302 300 300 298 295 293 291 291 291 289 286 284 284 282 280 277 273 273 273 274 273 269 268 267 265 267 268
292 297 299 296 291 291 295 301 303 307 311 309 309 305 304 305 301 296 294 295 291 291 289 289 287 283 281 280 279 277 275 272 271 271 272 273 270 270 268 267 262 261
297 300 299 296 298 302 304 304 306 309 310 310 310 306 304 301 299 299 300 294 293 290 287 286 285 282 278 278 275 271 270 268 267 268 268 268 268 266 267 270 268 261
301 302 299 298 305 306 309 313 315 313 310 309 304 300 297 295 299 296 291 294 289 285 288 284 282 284 280 275 274 271 265 264 264 264 263 263 261 261 259 261 265 264
302 299 302 308 310 315 316 317 315 314 310 308 304 298 297 295 286 285 291 290 295 293 289 287 282 281 278 275 275 276 271 266 264 261 261 259 260 259 255 253 255 256
299 302 307 311 315 315 317 317 315 313 309 306 305 303 300 297 292 298 299 301 299 298 298 294 288 282 284 284 282 280 278 275 270 269 266 260 258 266 268 262 258 255
302 307 312 316 321 319 317 315 311 310 309 308 307 306 304 300 299 303 305 305 302 300 299 298 296 295 293 291 288 286 283 279 275 269 264 263 257 255 262 265 269 274
307 315 320 322 324 319 315 314 313 311 311 312 310 307 306 313 311 309 307 307 305 303 300 299 298 296 297 295 293 289 286 284 278 270 268 261 262 253 255 258 262 265
314 325 324 323 320 318 316 315 315 311 310 307 308 312 314 311 311 310 309 308 308 304 301 298 295 295 296 298 298 295 290 286 282 278 268 257 250 246 252 257 259 259
331 332 329 324 323 320 317 313 311 311 312 313 312 314 315 314 315 313 309 306 302 299 298 298 295 295 298 300 301 298 294 291 284 280 273 263 253 247 248 247 253 255
338 334 331 326 322 321 317 313 313 313 314 314 312 309 307 306 305 302 302 302 299 299 299 297 294 298 300 301 302 301 300 295 286 279 268 255 249 251 250 243 250 251
342 335 329 324 321 318 314 313 313 314 313 314 310 309 309 308 304 301 299 299 301 301 302 298 293 297 302 305 304 303 304 294 290 277 253 246 252 249 253 255 253 252
339 333 325 320 317 312 309 308 306 303 305 310 308 310 310 307 304 301 299 299 301 303 301 300 299 300 303 303 304 304 309 311 305 294 258 254 250 238 237 245 254 252
329 325 317 311 308 303 305 306 308 309 307 306 303 302 301 300 300 300 300 302 301 302 306 307 298 298 298 301 307 312 313 307 302 296 267 252 246 242 234 241 246 253
323 316 309 306 302 301 300 302 304 306 308 309 307 305 302 303 300 300 303 306 309 309 308 300 291 291 301 314 316 314 313 311 303 302 296 279 260 240 233 227 240 250